C4984 Weather Reports


time (UTC)temp
C
wind
direction
speed
KPH
gust
KPH
rain 1hr
cm
rain 24hr
cm
rain mn
cm
humidity
%
barometer
mb
20260502221401 13 0 0.0 0.0 0.00 0.08 0.08 81 1006.4
20260502220421 13 0 0.0 0.0 0.00 0.08 0.08 82 1006.4
20260502215409 13 0 0.0 0.0 0.00 0.08 0.08 81 1006.1
20260502214423 13 0 0.0 0.0 0.00 0.08 0.08 81 1006.1
20260502213414 13 194 0.0 0.0 0.00 0.08 0.08 83 1006.3
20260502212426 13 349 0.0 1.6 0.00 0.08 0.08 82 1006.4
20260502211413 13 349 0.0 0.0 0.00 0.08 0.08 85 1006.4
20260502210417 13 349 0.0 1.6 0.00 0.08 0.08 84 1006.4
20260502204308 13 237 0.0 1.6 0.00 0.08 0.08 84 1006.4
20260502202153 14 142 0.0 3.2 0.00 0.08 0.08 82 1006.2
20260502200016 14 74 0.0 3.2 0.00 0.08 0.08 84 1006.4
20260502194959 13 3 0.0 1.6 0.00 0.08 0.08 81 1006.5
20260502192805 13 359 0.0 3.2 0.00 0.08 0.08 84 1006.9
20260502191750 13 27 0.0 1.6 0.00 0.08 0.08 84 1006.9
20260502185630 13 307 0.0 3.2 0.00 0.08 0.08 86 1007.0
20260502184620 13 88 0.0 3.2 0.00 0.08 0.08 87 1007.0
20260502183636 13 283 0.0 3.2 0.00 0.08 0.08 89 1007.2
20260502180327 12 304 0.0 3.2 0.00 0.08 0.08 90 1007.6
20260502162833 11 359 0.0 3.2 0.00 0.08 0.08 92 1009.1
20260502160650 11 347 0.0 1.6 0.00 0.05 0.05 93 1008.9
20260502151609 11 346 0.0 1.6 0.00 0.05 0.05 93 1008.6
20260502150625 11 352 0.0 1.6 0.00 0.05 0.05 92 1008.9
20260502130459 11 70 0.0 1.6 0.00 0.00 0.00 93 1007.6
20260502123451 11 203 0.0 1.6 0.00 0.00 0.00 93 1007.2
20260502122447 11 184 0.0 0.0 0.00 0.00 0.00 93 1007.1
20260502120259 10 148 0.0 1.6 0.00 0.00 0.00 93 1007.0
20260502114105 10 134 0.0 0.0 0.00 0.00 0.00 93 1007.1
20260502113130 10 127 0.0 0.0 0.00 0.00 0.00 93 1007.1
20260502112142 11 106 0.0 0.0 0.00 0.00 0.00 93 1007.5
20260502111200 11 205 0.0 1.6 0.00 0.00 0.00 93 1007.5
20260502110156 11 135 0.0 0.0 0.00 0.00 0.00 93 1007.5
20260502105125 11 131 0.0 1.6 0.00 0.00 0.00 92 1007.4
20260502104102 11 131 0.0 1.6 0.00 0.00 0.00 93 1007.5
20260502103103 11 144 0.0 1.6 0.00 0.00 0.00 93 1007.5
20260502102117 11 148 0.0 1.6 0.00 0.00 0.00 94 1007.5
20260502101115 10 150 0.0 0.0 0.00 0.00 0.00 94 1007.5
20260502100116 10 150 0.0 0.0 0.00 0.00 0.00 94 1007.5
20260502091001 10 134 0.0 0.0 0.00 0.00 0.00 94 1007.1
20260502070752 10 60 0.0 0.0 0.00 0.00 0.00 93 1006.6
20260502065751 10 60 0.0 0.0 0.00 0.00 0.00 93 1006.8
20260502063722 10 60 0.0 0.0 0.00 0.00 0.00 93 1006.6
20260502062747 10 60 0.0 0.0 0.00 0.00 0.00 93 1006.7
20260502061733 10 60 0.0 0.0 0.00 0.00 0.00 93 1006.7
20260502060715 10 60 0.0 0.0 0.00 0.00 0.00 92 1006.8
20260502055716 10 60 0.0 0.0 0.00 0.00 0.00 92 1006.9
20260502054721 10 60 0.0 0.0 0.00 0.00 0.00 92 1006.9
20260502053726 10 60 0.0 0.0 0.00 0.00 0.00 92 1007.0
20260502052742 10 60 0.0 0.0 0.00 0.00 0.00 91 1007.4
20260502051715 10 60 0.0 0.0 0.00 0.00 0.00 91 1007.4
20260502050728 10 60 0.0 0.0 0.00 0.00 0.00 91 1007.4
20260502045659 10 60 0.0 0.0 0.00 0.00 0.00 90 1007.4
20260502044653 10 60 0.0 0.0 0.00 0.00 0.00 90 1007.4
20260502042550 11 60 0.0 0.0 0.00 0.00 0.00 89 1007.5
20260502041525 11 60 0.0 0.0 0.00 0.00 0.00 89 1007.5
20260502040459 11 60 0.0 0.0 0.00 0.00 0.00 88 1007.7
20260502035501 11 60 0.0 0.0 0.00 0.00 0.00 88 1007.9
20260502033322 11 60 0.0 0.0 0.00 0.00 0.00 88 1007.7
20260502032325 11 349 0.0 0.0 0.00 0.00 0.00 88 1007.8
20260502031319 11 0 0.0 0.0 0.00 0.00 0.00 88 1008.0
20260502030316 11 14 0.0 0.0 0.00 0.00 0.00 88 1008.0
20260502025248 11 56 0.0 4.8 0.00 0.00 0.00 88 1008.0
20260502024240 11 103 0.0 3.2 0.00 0.00 0.00 88 1008.0
20260502023222 11 77 0.0 1.6 0.00 0.00 0.00 88 1008.0
20260502022212 11 82 0.0 1.6 0.00 0.00 0.00 88 1008.1
20260502021211 11 63 0.0 3.2 0.00 0.00 0.00 88 1008.1
20260502020203 11 294 0.0 0.0 0.00 0.00 0.00 88 1008.1
20260502015140 11 294 0.0 0.0 0.00 0.00 0.00 88 1008.1
20260502014140 11 294 0.0 0.0 0.00 0.00 0.00 87 1008.2
20260502013135 11 294 0.0 1.6 0.00 0.00 0.00 87 1008.2
20260502012128 11 146 0.0 0.0 0.00 0.00 0.00 86 1008.1
20260502010010 11 146 0.0 0.0 0.00 0.00 0.00 84 1007.9
20260502004936 11 146 0.0 0.0 0.00 0.00 0.00 82 1007.9
20260502003918 11 103 0.0 0.0 0.00 0.00 0.00 81 1007.6
20260502001820 12 151 0.0 1.6 0.00 0.00 0.00 80 1007.5
20260502000747 12 0 0.0 0.0 0.00 0.00 0.00 80 1007.6
20260501235756 12 352 0.0 1.6 0.00 0.00 0.00 78 1007.6
20260501234752 12 129 0.0 0.0 0.00 0.00 0.00 77 1007.6
20260501233809 13 54 0.0 0.0 0.00 0.00 0.00 77 1007.5
20260501232825 13 96 0.0 4.8 0.00 0.00 0.00 76 1007.3
20260501231810 13 1 0.0 0.0 0.00 0.00 0.00 76 1007.3
20260501230825 13 98 0.0 3.2 0.00 0.00 0.00 76 1007.3
20260501225826 13 77 0.0 1.6 0.00 0.00 0.00 74 1007.6
20260501222456 13 2 1.6 9.7 0.00 0.00 0.00 73 1008.0